Weather Roundup
Issued by NWS Chicago, IL

Home | Current Version | Previous Version | Graphics & Text | Print | Product List | Glossary On
Versions: 1 2 3 4 5 6 7 8 9 10 11 12 13 14 15 16 17 18 19 20 21 22 23 24 25 26 27 28 29 30 31 32 33 34 35 36 37 38 39 40 41 42 43 44 45 46 47 48 49 50
000
NZUS59 KLOT 030002
HRRLOT

CHICAGO AREA WEATHER ROUNDUP
NATIONAL WEATHER SERVICE CHICAGO/ROMEOVILLE IL
700 PM CDT WED SEP 02 2015

NOTE: "FAIR" INDICATES FEW OR NO CLOUDS BELOW 12,000 FEET WITH NO
SIGNIFICANT WEATHER AND/OR OBSTRUCTIONS TO VISIBILITY.

* THESE STATIONS ARE NOT UNDER NWS QUALITY CONTROL. THEY ALSO MAY NOT
  REPORT WEATHER SUCH AS PRECIPITATION OR FOG.

ILZ005-006-012>014-019>023-030100-
NORTHEAST ILLINOIS

CITY           SKY/WX    TMP DP  RH WIND       PRES   REMARKS
OHARE          MOCLDY    85  68  56 VRB7      29.96R HX  88
6HR MIN TEMP:  85; 6HR MAX TEMP:  90;

MIDWAY         MOCLDY    87  67  51 W8        29.95S HX  90
6HR MIN TEMP:  87; 6HR MAX TEMP:  92;

AURORA         MOCLDY    83  72  69 S5        29.97S HX  88
6HR MIN TEMP:  83; 6HR MAX TEMP:  90;

WAUKEGAN       MOCLDY    81  70  69 CALM      29.94F HX  84
6HR MIN TEMP:  81; 6HR MAX TEMP:  89;

DUPAGE AIRPORT MOCLDY    82  69  64 SW5       29.96S HX  85
6HR MIN TEMP:  82; 6HR MAX TEMP:  89;

WHEELING       MOCLDY    86  66  51 SW7       29.96S HX  88
6HR MIN TEMP:  86; 6HR MAX TEMP:  91;

NORTHERLY IS     N/A     86  63  45 SW5         N/A  HX  87
$$

WIZ051-052-058>065-066-070>072-030100-
SOUTHEAST WISCONSIN

CITY           SKY/WX    TMP DP  RH WIND       PRES   REMARKS
MILWAUKEE      MOCLDY    85  68  56 SW8       29.94S HX  88
6HR MIN TEMP:  85; 6HR MAX TEMP:  89;

KENOSHA*       CLOUDY    83  71  67 SW5       29.95S HX  87
RACINE*        CLOUDY    83  69  62 SW7       29.96S HX  86
WAUKESHA       CLEAR     81  68  65 SW7       29.96F HX  83
$$

INZ001>003-010>013-019-020-030100-
NORTHWEST INDIANA

CITY           SKY/WX    TMP DP  RH WIND       PRES   REMARKS
GARY*          MOCLDY    86  64  48 W12       29.96S HX  87
MICHIGAN CITY* NOT AVBL
RENSSELAER*    NOT AVBL
$$

LMZ740>746-030100-
SOUTHERN LAKE MICHIGAN

STATION/POSITION TIME  SKY/WX   TEMP WIND        PRES    VSBY
                                AIR  DIR/SP/G
                 (UTC)          (F)  (DEG/KT/KT) (MB)    (MI)
HARRISON CRIB    2300            87  220/ 17/ 21   N/A
BURNHAM HARBOR   0000            86  220/  8/ 12   N/A
CALUMET HARBOR   2300            86  200/  9/ 13   N/A
BURNS HARBOR     2300            86  220/  7/ 10 1014.9S
MICHIGAN CITY    2300            83  330/  3/  4   N/A
$$

ABBREVIATIONS USED IN REMARKS
   TC - TEMPERATURE IN CELSIUS
  WCI - WIND CHILL INDEX
   HX - HEAT INDEX
  VSB - VISIBILITY
$$



USA.gov is the U.S. government's official web portal to all federal, state and local government web resources and services.